FW5866 Weather Reports


Display with metric or nautical units.
time (UTC)temp
F
wind
direction
speed
MPH
gust
MPH
rain 1hr
in
rain 24hr
in
rain mn
in
humidity
%
barometer
mb
20260903053111 79 0 0.0 0.0 0.00 0.00 0.00 91 1016.6
20260903051549 79 0 0.0 0.0 0.00 0.00 0.00 91 1016.7
20260903050106 78 0 0.0 0.0 0.00 0.00 0.00 91 1016.7
20260903044601 78 0 0.0 0.0 0.00 0.00 0.00 90 1016.8
20260903043106 78 0 0.0 0.0 0.00 0.00 0.00 90 1016.7
20260903041600 78 0 0.0 0.0 0.00 0.00 0.00 90 1016.8
20260903040058 78 0 0.0 0.0 0.00 0.00 0.00 90 1017.0
20260903034601 78 0 0.0 0.0 0.00 0.00 0.00 90 1017.1
20260903033050 78 0 0.0 0.0 0.00 0.00 0.00 89 1017.1
20260903031618 79 0 0.0 0.0 0.00 0.00 0.00 89 1017.2
20260903030054 79 0 0.0 0.0 0.00 0.00 0.00 89 1017.4
20260903024551 79 0 0.0 0.0 0.00 0.00 0.00 89 1017.3
20260903023047 80 0 0.0 0.0 0.00 0.00 0.00 88 1017.2
20260903021555 80 0 0.0 0.0 0.00 0.00 0.00 89 1017.0
20260903020104 80 0 0.0 0.0 0.00 0.00 0.00 88 1017.0
20260903014556 80 0 0.0 1.0 0.00 0.00 0.00 88 1016.6
20260903013057 80 0 0.0 0.0 0.00 0.00 0.00 88 1016.4
20260903011559 81 0 0.0 2.0 0.00 0.00 0.00 87 1016.1
20260903010056 82 0 0.0 1.0 0.00 0.00 0.00 87 1016.1
20260903004550 82 0 0.0 0.0 0.00 0.00 0.00 87 1016.0
20260903003051 82 0 0.0 0.0 0.00 0.00 0.00 87 1016.0
20260903001605 83 0 0.0 1.0 0.00 0.00 0.00 87 1016.2
20260903000057 83 0 0.0 1.0 0.00 0.00 0.00 87 1016.3
20260902234555 84 0 0.0 2.0 0.00 0.00 0.00 87 1016.2
20260902233059 84 206 0.0 2.0 0.00 0.00 0.00 87 1016.3
20260902231551 84 0 0.0 0.0 0.00 0.00 0.00 86 1016.2
20260902230058 84 0 0.0 0.0 0.00 0.00 0.00 86 1016.4
20260902224556 84 0 0.0 0.0 0.00 0.00 0.00 86 1016.4
20260902223051 84 0 0.0 0.0 0.00 0.00 0.00 86 1016.3
20260902221607 83 0 0.0 0.0 0.00 0.00 0.00 86 1016.4
20260902220100 83 0 0.0 0.0 0.00 0.00 0.00 86 1016.4
20260902214604 83 0 0.0 1.0 0.00 0.00 0.00 86 1016.7
20260902213049 83 0 0.0 2.0 0.00 0.00 0.00 86 1016.7
20260902211614 83 0 0.0 0.0 0.00 0.00 0.00 87 1016.6
20260902210114 83 0 0.0 2.0 0.00 0.00 0.00 87 1017.0
20260902204738 82 0 0.0 1.0 0.00 0.00 0.00 87 1017.1
20260902203050 82 0 0.0 1.0 0.00 0.00 0.00 87 1017.4
20260902201605 82 328 0.0 0.0 0.00 0.00 0.00 87 1017.6
20260902200053 82 0 0.0 0.0 0.00 0.00 0.00 87 1017.4
20260902194554 82 0 0.0 1.0 0.00 0.00 0.00 87 1017.5
20260902193051 82 0 0.0 2.0 0.00 0.00 0.00 87 1017.7
20260902191602 82 0 1.0 3.0 0.00 0.00 0.00 87 1018.0
20260902190057 82 289 2.0 7.0 0.00 0.00 0.00 87 1018.0
20260902184557 82 188 1.0 5.0 0.00 0.00 0.00 86 1018.1
20260902183054 82 172 1.0 7.0 0.00 0.00 0.00 85 1017.9
20260902181559 84 151 3.0 9.0 0.00 0.00 0.00 84 1017.9
20260902180116 86 152 1.0 7.0 0.00 0.00 0.00 84 1017.9
20260902174559 86 0 1.0 5.0 0.00 0.00 0.00 84 1018.0
20260902173101 85 132 0.0 3.0 0.00 0.00 0.00 85 1018.2
20260902171600 85 0 0.0 4.0 0.00 0.00 0.00 87 1018.1
20260902170051 85 56 0.0 5.0 0.00 0.00 0.00 87 1018.1
20260902164601 86 0 0.0 5.0 0.00 0.01 0.00 88 1018.4
20260902163057 87 113 0.0 5.0 0.00 0.01 0.00 87 1018.5
20260902161554 87 0 0.0 2.0 0.00 0.01 0.00 88 1018.7
20260902160052 87 148 0.0 6.0 0.00 0.01 0.00 88 1018.8
20260902154546 87 0 0.0 4.0 0.00 0.01 0.00 90 1018.8
20260902153054 86 0 0.0 5.0 0.00 0.01 0.00 91 1018.6
20260902151556 86 166 1.0 6.0 0.00 0.01 0.00 90 1018.5
20260902150049 85 0 0.0 6.0 0.00 0.01 0.00 92 1018.5
20260902144607 85 0 0.0 2.0 0.00 0.01 0.00 92 1018.6
20260902143057 84 0 0.0 3.0 0.00 0.01 0.00 93 1018.4
20260902141550 84 146 0.0 4.0 0.00 0.01 0.00 93 1018.3
20260902140053 84 0 0.0 3.0 0.00 0.01 0.00 94 1018.3
20260902134547 83 94 0.0 2.0 0.00 0.01 0.00 95 1018.2
20260902133054 82 118 0.0 3.0 0.00 0.01 0.00 95 1018.2
20260902131554 81 72 0.0 2.0 0.00 0.01 0.00 96 1018.0
20260902130104 81 0 0.0 0.0 0.00 0.01 0.00 96 1017.7
20260902124546 80 0 0.0 0.0 0.00 0.17 0.00 95 1017.7
20260902123054 79 0 0.0 0.0 0.00 0.17 0.00 95 1017.6
20260902121550 78 0 0.0 0.0 0.00 0.17 0.00 94 1017.4
20260902114554 78 0 0.0 0.0 0.00 0.18 0.00 94 1017.2
20260902113055 78 0 0.0 0.0 0.00 0.18 0.00 94 1017.1
20260902111550 78 0 0.0 0.0 0.00 0.18 0.00 94 1017.1
20260902110047 78 0 0.0 0.0 0.00 0.18 0.00 94 1016.8
20260902104554 78 0 0.0 0.0 0.00 0.20 0.00 94 1016.9
20260902103053 78 0 0.0 0.0 0.00 0.20 0.00 94 1016.7
20260902101550 78 0 0.0 1.0 0.00 0.20 0.00 94 1016.9
20260902100110 78 0 0.0 1.0 0.00 0.20 0.00 94 1016.8
20260902094615 78 0 0.0 0.0 0.00 0.23 0.00 93 1017.0
20260902093053 77 0 0.0 0.0 0.00 0.23 0.00 93 1016.8
20260902091558 78 0 0.0 0.0 0.00 0.23 0.00 93 1016.8
20260902090058 78 0 0.0 0.0 0.00 0.23 0.00 94 1016.7
20260902084556 78 0 0.0 1.0 0.00 0.23 0.00 94 1016.6
20260902083056 78 0 0.0 1.0 0.00 0.23 0.00 93 1016.7
20260902081550 78 0 0.0 0.0 0.00 0.23 0.00 93 1016.7
20260902080113 78 0 0.0 1.0 0.00 0.23 0.00 93 1016.7
20260902074557 78 0 0.0 0.0 0.00 0.23 0.00 93 1016.6
20260902073056 79 0 0.0 1.0 0.00 0.23 0.00 93 1016.8
20260902071551 79 0 0.0 1.0 0.00 0.23 0.00 93 1016.9
20260902070106 79 0 0.0 1.0 0.00 0.23 0.00 93 1016.8
20260902064610 79 0 0.0 0.0 0.00 0.23 0.00 93 1016.8
20260902063053 79 0 0.0 1.0 0.00 0.23 0.00 93 1016.8
20260902061604 79 155 0.0 2.0 0.00 0.23 0.00 93 1017.0
20260902060115 79 0 0.0 0.0 0.00 0.23 0.00 93 1017.1
20260902054557 79 0 0.0 2.0 0.00 0.23 0.00 93 1017.1